This is the latest recevied weather packets stored in our database for station/object EA5JMY-10. If no packets are shown the sender has not sent any weather packets the latest 10 day(s).
| Time | Temp. | Humidity | Pressure | Rain* | Wind** | Luminosity | Snow |
|---|---|---|---|---|---|---|---|
| 1788213303 | 26.67° C | 74% | 1021.1 hPa | - | - | - | - |
| 1788212403 | 27.22° C | 74% | 1020.9 hPa | - | - | - | - |
| 1788211503 | 26.67° C | 75% | 1020.7 hPa | - | - | - | - |
| 1788210603 | 27.22° C | 74% | 1020.7 hPa | - | - | - | - |
| 1788209703 | 27.22° C | 73% | 1020.6 hPa | - | - | - | - |
| 1788208803 | 27.22° C | 71% | 1020.4 hPa | - | - | - | - |
| 1788207902 | 27.22° C | 69% | 1020.2 hPa | - | - | - | - |
| 1788207002 | 27.22° C | 68% | 1020 hPa | - | - | - | - |
| 1788206102 | 27.78° C | 69% | 1019.6 hPa | - | - | - | - |
| 1788205202 | 27.78° C | 68% | 1019.3 hPa | - | - | - | - |
| 1788204302 | 27.78° C | 69% | 1019.1 hPa | - | - | - | - |
| 1788203402 | 27.78° C | 70% | 1018.9 hPa | - | - | - | - |
| 1788202502 | 27.78° C | 69% | 1018.7 hPa | - | - | - | - |
| 1788201602 | 28.33° C | 68% | 1018.5 hPa | - | - | - | - |
| 1788200702 | 28.33° C | 67% | 1018.3 hPa | - | - | - | - |
| 1788199800 | 28.33° C | 66% | 1018.3 hPa | - | - | - | - |
| 1788198900 | 28.89° C | 65% | 1018.3 hPa | - | - | - | - |
| 1788198000 | 28.89° C | 64% | 1018.2 hPa | - | - | - | - |
| 1788197100 | 28.89° C | 62% | 1018.2 hPa | - | - | - | - |
| 1788196200 | 29.44° C | 62% | 1018.1 hPa | - | - | - | - |
| 1788195300 | 29.44° C | 61% | 1018.2 hPa | - | - | - | - |
| 1788194400 | 30° C | 59% | 1018.4 hPa | - | - | - | - |
| 1788193500 | 30° C | 58% | 1018.4 hPa | - | - | - | - |
| 1788192599 | 30.56° C | 57% | 1018.5 hPa | - | - | - | - |
| 1788191699 | 31.67° C | 52% | 1018.5 hPa | - | - | - | - |
* Rain since midnight (hover to see other rain measurements)
** Current wind speed in m/s (hover to see current wind gust speed)